www.pogodaiklimat.ru

Погода и климат >> Архив погоды >> Ирак >> Ubaydah Bin Al Jarrah


ПОГОДА в Ubaydah Bin Al Jarrah

  • Прогноз погоды в Ubaydah Bin Al Jarrah
  • Монитор погоды в Ubaydah Bin Al Jarrah
  • Климат города

АРХИВ ПОГОДЫ в Ubaydah Bin Al Jarrah

Время (UTC), дата Ветер
(напр.,м/с)
 
Видим.   Явления Облачность Т
(С)
Тd
(С)
f
(%)
Тe
(С)
Тes
(С)
Комфортность P
(гПа)
Po
(гПа)
Тmin
(С)
Tmax
(С)
R
(мм)
R24
(мм)
S
(см)
00 12.12 С 6 10 км ясно +8.0 -0.9 53 +4 +4 1024.9 1025.0
03 12.12 СЗ 6 10 км ясно +7.4 -0.4 58 +4 +4 1022.9 1023.0
06 12.12 СЗ 8 10 км ясно +11.2 -0.2 45 +8 +9 1023.2 1023.0 +7.0
09 12.12 СЗ 8 6000 м пыльный позёмок ясно +18.4 0.0 29 +18 +19 1021.6 1022.0
12 12.12 СЗ 9 5000 м пыльный позёмок ясно +20.2 -0.3 25 +20 +20 1020.1 1020.0
15 12.12 СЗ 6 10 км 1/0
[Ac trans]
+15.2 +0.7 37 +14 +14 1020.4 1020.0
18 12.12 З 6 10 км ясно +12.2 +2.5 51 +10 +10 1020.7 1021.0 +20.7
21 12.12 З 5 10 км ясно +10.4 +2.4 58 +8 +8 1019.9 1020.0
00 13.12 С 2 10 км ясно +7.6 +1.7 66 +6 +6 1019.6 1020.0
03 13.12 СЗ 2 10 км ясно +6.8 +1.2 67 +5 +5 1019.0 1019.0
06 13.12 штиль 0 10 км ясно +8.2 +1.2 61 +8 +11 1020.1 1020.0 +5.0
09 13.12 СЗ 2 10 км 3/0
[Ci fib]
+15.2 +2.0 41 +15 +22 1018.9 1019.0
12 13.12 штиль 0 10 км 3/0
[Ci sp]
+19.3 +3.6 35 +19 +22 1017.6 1018.0
15 13.12 штиль 0 10 км 3/0
[Ci sp]
+14.0 +6.5 61 +14 +14 1017.3 1017.0
18 13.12 штиль 0 10 км ясно +10.8 +5.0 67 +10 +10 1017.3 1017.0 +20.0
21 13.12 ЮВ 2 10 км ясно +11.6 +4.5 62 +11 +11 1016.7 1017.0
00 14.12 штиль 0 10 км ясно +8.2 +1.8 64 +8 +8 1016.9 1017.0
03 14.12 ЮВ 2 10 км ясно +8.0 +2.2 67 +6 +6 1016.2 1016.0
06 14.12 Ю 4 8000 м пыль ясно +11.6 +3.4 57 +10 +11 1017.0 1017.0 +6.0
12 14.12 ЮВ 4 8000 м пыль ясно +19.8 +3.2 33 +20 +22 1014.2 1014.0
18 14.12 В 2 10 км ясно +15.2 +5.0 51 +15 +15 1015.4 1015.0 +20.0
03 15.12 штиль 0 10 км ясно +8.4 +5.2 80 +8 +8 1015.5 1016.0
06 15.12 штиль 0 10 км 4/4 1050 м
[Cu med, cong]
+10.8 +5.5 70 +10 +12 1017.6 1018.0 +7.0
09 15.12 СВ 2 10 км 3/3 900 м
[Cu med, cong]
+19.6 +8.9 50 +21 +26 комфорт 1017.3 1017.0
12 15.12 штиль 0 10 км 3/3 900 м
[Cu med, cong]
+22.4 +8.4 41 +24 +26 комфорт 1015.8 1016.0
15 15.12 штиль 0 10 км ясно +17.0 +8.4 57 +17 +17 1016.1 1016.0
18 15.12 штиль 0 10 км ясно +13.4 +7.2 66 +13 +13 1018.9 1019.0 +23.0
21 15.12 СЗ 3 10 км ясно +11.2 +5.0 66 +10 +10 1019.3 1019.0
03 16.12 З 2 10 км ясно +9.0 +4.4 73 +7 +7 1020.8 1021.0
06 16.12 С 3 10 км ясно +10.0 +4.1 67 +8 +10 1022.4 1022.0 +7.7
09 16.12 С 2 10 км ясно +18.6 +5.5 42 +19 +26 1021.8 1022.0
12 16.12 З 2 10 км ясно +22.6 +4.8 31 +23 +25 комфорт 1020.5 1021.0
15 16.12 СЗ 2 10 км ясно +16.8 +5.6 48 +17 +17 1021.6 1022.0
18 16.12 СЗ 2 10 км ясно +12.8 +6.0 63 +12 +12 1022.4 1022.0 +23.0
21 16.12 СЗ 2 10 км ясно +10.4 +5.1 70 +9 +9 1023.0 1023.0
00 17.12 З 2 10 км ясно +9.8 +3.3 64 +9 +9 1023.3 1023.0
03 17.12 З 2 10 км ясно +7.0 +2.6 74 +5 +5 1023.8 1024.0
06 17.12 З 2 6000 м мгла 3/0
[Ci fib]
+10.0 +3.0 62 +9 +11 1025.0 1025.0 +6.0
12 17.12 СЗ 3 10 км ясно +21.6 +5.6 35 +22 +24 комфорт 1021.8 1022.0
15 17.12 З 2 10 км ясно +16.6 +5.3 47 +17 +17 1022.5 1023.0
18 17.12 СЗ 3 10 км ясно +13.4 +4.7 56 +12 +12 1023.2 1023.0 +22.4
21 17.12 СЗ 3 10 км ясно +11.6 +3.9 59 +10 +10 1023.6 1024.0
00 18.12 СЗ 3 10 км 4/0
[Ac trans]
+8.2 +3.0 70 +6 +6 1024.3 1024.0
03 18.12 З 3 10 км ясно +7.8 +4.1 77 +5 +5 1024.4 1024.0
06 18.12 СЗ 2 6000 м мгла 3/0
[Ac trans]
+10.2 +3.8 64 +9 +11 1025.7 1026.0 +7.0
09 18.12 З 2 6000 м мгла 4/0
[Ci fib]
+18.4 +6.8 47 +19 +26 1024.6 1025.0
15 18.12 штиль 0 10 км 5/5 900 м
[Cu med, cong]
+16.2 +8.8 62 +16 +16 1023.9 1024.0

 

Местоположение метеостанции Ubaydah Bin Al Jarrah (Ирак): широта 32.49 долгота 45.75 высота над уровнем моря 21 м.

В архиве по умолчанию представлена погода в Ubaydah Bin Al Jarrah за последнюю неделю. Архивные данные за месяц целиком и за предыдущие месяцы, начиная с января 2011 года, Вы можете получить, выбрав интересующий диапазон дат из раскрывающегося списка и нажав кнопку "Ввод!".

Внимание! Время в таблицах - всемирное. Для получения местного времени необходимо прибавить поправку, которая в Ubaydah Bin Al Jarrah равна 3 ч.

Смотрите также архив погоды в соседних городах и на ближайших метеорологических станциях:

Погода в Kut-Al-Hai (Ирак) (45 км)
Погода в Badrah (Ирак) (70 км)
Погода в Azizyah (Ирак) (80 км)
Погода в Ali Al-Gharbi (Ирак) (91 км)
Погода в Rifai (Ирак) (92 км)
Погода в Diwaniya (Ирак) (92 км)
Погода в Hella (Ирак) (122 км)
Погода в Samawah (Ирак) (140 км)
Погода в Ilam (Иран) (142 км)
Погода в Najaf (Ирак) (146 км)

Пояснения к столбцам:

Ветер - указаны скорость ветра в м/с - средняя за 10 мин, порывы в срок и между сроками (в фигурных скобках) и направление, откуда дует ветер: С - северный, СВ - северо-восточный, В - восточный, ЮВ - юго-восточный, Ю - южный, ЮЗ - юго-западный, З - западный, СЗ - северо-западный.
Видимость - горизонтальная дальность видимости в метрах или километрах. При видимости от 1 до 10 км при отсутствии осадков обычно наблюдается дымка, при ухудшении видимости до 1 км и менее - туман. В сухую погоду видимость может ухудшаться дымом, пылью или мглою.
Явления - указаны атмосферные явления, наблюдавшиеся в срок или в последний час перед сроком; фигурными скобками обозначены явления, наблюдавшиеся между сроками (за 1-3 часа до срока); квадратными скобками обозначены град или гололедные отложения с указанием их диаметра в мм.
Облачность - указаны через наклонную черту общая и нижняя облачность в баллах и высота нижней границы облаков в метрах; квадратными скобками обозначены формы облаков: Ci - перистые, Cs - перисто-слоистые, Cc - перисто-кучевые, Ac - высококучевые, As - высокослоистые, Sc - слоисто-кучевые, Ns - слоисто-дождевые, Cu - кучевые, Cb - кучево-дождевые. Подробнее классификацию облаков см. в Атласе облаков (PDF).
T - Температура воздуха - температура, измеренная на высоте 2 м над землей.
Td - Температура точки росы - температура, при понижении до которой содержащийся в воздухе водяной пар достигнет насыщения.
f - Относительная влажность воздуха - влажноcть воздуха, измеренная на высоте 2 м над землей.
Te - Эффективная температура - температура, которую ощущает одетый по сезону человек в тени. Характеристика душности погоды. При расчете учитывается влияние влажности воздуха и скорости ветра на теплоощущения человека.
Tes - Эффективная температура на солнце - температура, которую ощущает человек, с поправкой на солнечный нагрев. Характеристика знойности погоды. Зависит от высоты солнца над горизонтом, облачности и скорости ветра. Ночью, в пасмурную погоду, а также при ветре 12 м/с и более поправка равна нулю.
P - Атмосферное давление - приведенное к уровню моря атмосферное давление.
Po - Атмосферное давление - измеренное на уровне метеостанции атмосферное давление.
Tmin - Минимальная температура - минимум температуры воздуха на высоте 2 м над землей.
Tmax - Максимальная температура - максимум температуры воздуха на высоте 2 м над землей.
R - Количество осадков - Количество выпавших осадков за период времени, мм. При наведении курсора мыши на число - период времени, за который выпало указанное количество осадков.
R24 - Количество осадков - Количество выпавших осадков за 24 часа, мм.
S - Снежный покров - Высота снежного покрова, см. При наведении курсора мыши на число - состояние снежного покрова и степень покрытия местности в баллах.